[[{"header":{"parameterUnit":"m.s-1","parameterCategory":1,"la1":30.2991,"la2":30.254,"lo1":-89.0895,"lo2":-89.0444,"dy":0.0017,"dx":0.0017,"nx":28,"ny":28,"refTime":"2024-06-24T21:00:00:Z","depth":0,"parameterNumber":2,"parameterNumberName":"U-component_of_WINDS"},"data":[0,0,0,0,0,0,0,0,0,0,0,0,0,0,0,0,0,0,0,0,0,0,0,0,0,0,0,0,0,0,0,0,0,0,0,0,0,0,0,0,0,0,0,0,0,0,0,0,0,0,0,0,0,0,0,0,0,0,2.7713,2.7715,0,2.7923,2.7925,2.7928,2.7995,2.7994,2.7993,2.7992,2.8209,2.8215,2.8222,0,0,0,0,0,0,0,0,0,0,0,0,0,2.7374,2.738,2.7713,2.7716,2.7718,2.7922,2.7925,2.7928,2.7995,2.7994,2.7992,2.7991,2.8206,2.8214,2.8222,0,0,0,0,0,0,0,0,0,0,0,0,0,2.7546,2.7382,2.7712,2.7776,2.7784,2.7922,2.7925,2.7929,2.7995,2.7994,2.7992,2.7991,2.8204,2.8214,2.8223,2.8314,0,0,2.8254,2.8258,0,0,0,0,0,0,0,0,2.7537,2.7559,2.7764,2.7772,2.7781,2.7931,2.7886,2.8058,2.7995,2.7915,2.7992,2.799,2.8118,2.8135,2.8177,2.8324,2.8334,2.8255,2.8261,2.8265,2.8268,0,0,0,0,0,0,0,2.7525,2.755,2.7796,2.7767,2.7777,2.7796,2.7818,2.7919,2.8022,2.7922,2.7927,2.7951,2.8122,2.8167,2.8183,2.8337,2.8255,2.8263,2.827,2.8274,2.8573,2.8575,0,0,0,0,0,0,2.7502,2.754,2.7789,2.7802,2.7653,2.7803,2.7828,2.7884,2.8021,2.804,2.7952,2.7953,2.8151,2.8171,2.8191,2.8308,2.8265,2.8275,2.828,2.8571,2.8574,2.8576,0,0,0,0,0,0,2.7494,2.7523,2.7781,2.7673,2.7707,2.781,2.7872,2.7889,2.7935,2.8044,2.8063,2.7979,2.8151,2.8177,2.8284,2.8316,2.8279,2.8288,2.8569,2.8572,2.8575,2.8542,0,0,0,0,0,0,2.7484,2.752,2.7554,2.7673,2.7712,2.7869,2.7874,2.7894,2.7952,2.7955,2.8074,2.8093,2.8151,2.8268,2.8294,2.8329,2.8296,2.8566,2.857,2.8574,2.854,2.8543,2.8546,0,0,0,0,0,2.7472,2.7536,2.7555,2.7585,2.7757,2.787,2.7893,2.7959,2.7954,2.799,2.8061,2.8089,2.8309,2.8279,2.8308,2.8347,2.8565,2.8569,2.8573,2.8539,2.8543,2.8546,0,0,0,0,0,0,2.7418,2.7553,2.7576,2.768,2.7763,2.7881,2.7929,2.796,2.8047,2.8047,2.8126,2.8152,2.8254,2.8312,2.8275,2.8444,2.8438,2.8449,2.8402,2.8407,2.8409,2.8393,2.8304,0,0,0,0,0,2.7418,2.7498,2.7612,2.7694,2.7734,2.7824,2.7876,2.792,2.801,2.8045,2.8124,2.821,2.83,2.8356,2.8444,2.855,2.8578,2.8591,2.8594,2.8596,2.8603,2.8667,2.8674,2.859,2.859,2.859,0,0,2.742,2.7503,2.7549,2.7685,2.7755,2.7837,2.7853,2.7939,2.8002,2.8059,2.8165,2.8226,2.8328,2.8435,2.8486,2.8486,2.8634,2.8601,2.8602,2.8609,2.8672,2.868,2.8687,2.8593,2.8593,2.8592,0,0,2.7465,2.7535,2.7612,2.7682,2.7788,2.7848,2.7866,2.7981,2.8024,2.8132,2.8177,2.8253,2.8404,2.8476,2.8532,2.8609,2.8639,2.8636,2.8649,2.8709,2.8716,2.8722,2.8751,2.876,2.8643,2.8643,2.8643,0,2.7453,2.7578,2.7647,2.7732,2.7792,2.7848,2.7928,2.7993,2.8121,2.8162,2.816,2.8354,2.8426,2.8552,2.8571,2.8615,2.864,2.8622,2.8709,2.8716,2.8723,2.8752,2.8762,2.8642,2.8642,2.8643,2.8643,0,2.756,2.7646,2.7696,2.7819,2.7885,2.7966,2.805,2.8109,2.8148,2.8209,2.832,2.841,2.8518,2.8552,2.859,2.8685,2.8682,2.8694,2.8689,2.8729,2.8757,2.8769,2.8641,2.8641,2.8641,2.8642,0,0,2.7573,2.7737,2.7754,2.7813,2.7935,2.8004,2.809,2.8196,2.8245,2.8333,2.8408,2.8537,2.855,2.8614,2.8662,2.8715,2.8772,2.8721,2.8725,2.8728,2.8884,2.8874,2.8886,2.8794,2.8796,2.8798,2.8876,0,2.7635,2.7789,2.7856,2.798,2.8063,2.8119,2.8194,2.8279,2.8339,2.8419,2.8486,2.8576,2.8586,2.8625,2.868,2.8753,2.8805,2.8749,2.8866,2.8869,2.8838,2.89,2.8889,2.8959,2.8887,2.8889,2.8891,0,2.7726,2.7815,2.7947,2.8063,2.81,2.8166,2.8271,2.8346,2.8444,2.8485,2.8558,2.8604,2.8699,2.8689,2.8821,2.8782,2.8834,2.8878,2.8882,2.8895,2.8882,2.8916,2.8982,2.8993,2.8909,2.8907,2.8906,0,2.7724,2.7878,2.7978,2.8026,2.8163,2.8208,2.8268,2.8365,2.8425,2.8517,2.8558,2.8659,2.8715,2.8794,2.8867,2.8853,2.8994,2.8989,2.9031,2.9029,2.9057,2.9055,2.9134,2.9091,2.9091,2.909,2.909,0,2.7785,2.7864,2.7979,2.804,2.8132,2.821,2.8299,2.8363,2.8449,2.8525,2.8581,2.8651,2.8744,2.8827,2.8886,2.8988,2.9013,2.9049,2.9064,2.9044,2.904,2.9079,2.9076,2.9093,2.9093,2.9092,2.9092,0,2.7798,2.7878,2.7991,2.8112,2.8145,2.8207,2.8312,2.8375,2.844,2.8536,2.8563,2.8664,2.8765,2.8847,2.8979,2.9018,2.9126,2.9142,2.9092,2.91,2.9138,2.9133,2.9245,2.9264,2.9207,2.9208,2.9208,0,2.7831,2.7894,2.8023,2.8078,2.8137,2.8225,2.8288,2.8368,2.8431,2.855,2.8599,2.8704,2.8793,2.8952,2.9038,2.9141,2.916,2.9193,2.9176,2.9155,2.9162,2.9157,2.9165,2.9194,2.9194,2.9194,2.9194,0,2.7883,2.792,2.8008,2.8111,2.8184,2.8269,2.8355,2.8397,2.8494,2.8563,2.8667,2.8736,2.8872,2.8977,2.9089,2.9152,2.919,2.9199,2.9215,2.9195,2.9164,2.9183,2.9097,2.9196,2.9196,2.9196,2.9196,2.9196,2.7908,2.7967,2.8068,2.8165,2.8239,2.8319,2.8385,2.8458,2.8546,2.8663,2.8706,2.8813,2.8914,2.9068,2.9133,2.9219,2.9223,2.9244,2.925,2.9254,2.9252,2.915,2.924,2.924,2.924,2.924,2.924,0,2.7963,2.8031,2.812,2.8239,2.8317,2.8346,2.8445,2.8507,2.8601,2.8691,2.8778,2.8899,2.9002,2.9097,2.9205,2.9257,2.9277,2.9282,2.9279,2.9294,2.9243,2.9219,2.9264,2.9264,2.9264,2.9264,2.9264,2.9264,2.8,2.8103,2.8153,2.8294,2.8363,2.8468,2.8522,2.8597,2.867,2.8803,2.8889,2.895,2.9044,2.916,2.9256,2.9282,2.9319,2.932,2.935,2.93,2.9297,2.9293,2.9272,2.9327,2.9327,2.9394,2.9395,2.9395]},{"header":{"parameterUnit":"m.s-1","parameterCategory":1,"la1":30.2991,"la2":30.254,"lo1":-89.0895,"lo2":-89.0444,"dy":0.0017,"dx":0.0017,"nx":28,"ny":28,"refTime":"2024-06-24T21:00:00:Z","depth":0,"parameterNumber":3,"parameterNumberName":"V-component_of_WINDS"},"data":[0,0,0,0,0,0,0,0,0,0,0,0,0,0,0,0,0,0,0,0,0,0,0,0,0,0,0,0,0,0,0,0,0,0,0,0,0,0,0,0,0,0,0,0,0,0,0,0,0,0,0,0,0,0,0,0,0,0,0.5585,0.5586,0,0.5639,0.564,0.5641,0.5725,0.5727,0.5728,0.573,0.578,0.578,0.578,0,0,0,0,0,0,0,0,0,0,0,0,0,0.555,0.555,0.5585,0.5586,0.5587,0.5639,0.564,0.5641,0.5725,0.5727,0.5729,0.573,0.578,0.578,0.578,0,0,0,0,0,0,0,0,0,0,0,0,0,0.5581,0.5551,0.5585,0.5635,0.564,0.5639,0.564,0.5641,0.5725,0.5727,0.5729,0.5731,0.578,0.578,0.578,0.5733,0,0,0.578,0.578,0,0,0,0,0,0,0,0,0.5579,0.5582,0.5627,0.5632,0.5637,0.5678,0.5646,0.5672,0.5724,0.5692,0.573,0.5733,0.5744,0.5747,0.5752,0.5735,0.5738,0.578,0.578,0.578,0.578,0,0,0,0,0,0,0,0.5577,0.558,0.5607,0.5628,0.5634,0.5653,0.566,0.5651,0.5704,0.5695,0.5702,0.5707,0.5747,0.5752,0.5754,0.5738,0.578,0.578,0.578,0.5779,0.5685,0.5683,0,0,0,0,0,0,0.5568,0.5578,0.5605,0.5608,0.5613,0.5652,0.566,0.5663,0.5705,0.5714,0.5705,0.5711,0.5751,0.5754,0.5756,0.5704,0.578,0.5779,0.5779,0.5688,0.5685,0.5682,0,0,0,0,0,0,0.5567,0.557,0.5603,0.5595,0.5601,0.565,0.5653,0.5662,0.5667,0.5712,0.5722,0.57,0.5753,0.5756,0.5738,0.5707,0.5779,0.5779,0.5691,0.5687,0.5683,0.5598,0,0,0,0,0,0,0.5565,0.5569,0.5552,0.5594,0.5601,0.5585,0.5651,0.5662,0.5667,0.5675,0.571,0.5718,0.5755,0.5738,0.5738,0.5708,0.5779,0.5694,0.5689,0.5685,0.5604,0.5592,0.5582,0,0,0,0,0,0.5564,0.5525,0.5551,0.5554,0.5582,0.5583,0.5587,0.5632,0.5664,0.5648,0.5677,0.5717,0.571,0.5736,0.5736,0.5705,0.5696,0.569,0.5685,0.5609,0.5594,0.5582,0,0,0,0,0,0,0.5477,0.5532,0.5561,0.5535,0.5554,0.5598,0.5578,0.5615,0.5624,0.5631,0.5684,0.5691,0.5666,0.5684,0.5712,0.5662,0.5709,0.5703,0.5651,0.5638,0.5627,0.5623,0.5779,0,0,0,0,0,0.5456,0.5454,0.5501,0.5473,0.5482,0.5528,0.553,0.5563,0.5584,0.5592,0.562,0.5638,0.564,0.564,0.5644,0.5607,0.5615,0.5586,0.5575,0.5565,0.556,0.5541,0.5528,0.5664,0.5664,0.5664,0,0,0.541,0.5439,0.5435,0.5457,0.5475,0.5471,0.5534,0.5527,0.5524,0.5591,0.5576,0.5597,0.562,0.5593,0.5582,0.5607,0.5524,0.5558,0.5551,0.555,0.5534,0.5521,0.551,0.5661,0.5661,0.5662,0,0,0.5325,0.5347,0.5327,0.5344,0.5372,0.5403,0.5398,0.5436,0.5453,0.544,0.549,0.5486,0.5488,0.5502,0.551,0.5429,0.5467,0.5429,0.5371,0.5352,0.5341,0.5332,0.5303,0.5292,0.5423,0.5423,0.5423,0,0.5264,0.5261,0.5311,0.5301,0.5309,0.537,0.5349,0.5363,0.539,0.5393,0.5421,0.5425,0.5445,0.5421,0.5402,0.5406,0.5401,0.5425,0.5339,0.533,0.5322,0.5295,0.5284,0.5418,0.5419,0.5419,0.542,0,0.5185,0.5182,0.5162,0.5188,0.5193,0.5177,0.5223,0.5222,0.5254,0.5282,0.5266,0.5292,0.5303,0.53,0.533,0.528,0.5295,0.533,0.5378,0.5304,0.5279,0.5269,0.5412,0.5413,0.5415,0.5416,0,0,0.5047,0.5101,0.5093,0.5105,0.5141,0.5139,0.5125,0.5136,0.5134,0.515,0.5139,0.514,0.5173,0.5181,0.5213,0.5197,0.5131,0.5234,0.5236,0.5214,0.5076,0.5049,0.5037,0.5156,0.5154,0.5152,0.5074,0,0.4969,0.495,0.4994,0.4964,0.4962,0.502,0.5008,0.5027,0.5052,0.5052,0.5079,0.5079,0.5122,0.5128,0.5114,0.5142,0.5104,0.5148,0.5145,0.5144,0.5137,0.5024,0.4995,0.492,0.5065,0.5063,0.5062,0,0.4875,0.4888,0.4858,0.4895,0.4896,0.4884,0.4898,0.4898,0.492,0.494,0.4949,0.4987,0.4975,0.5021,0.5004,0.5033,0.5034,0.5048,0.5046,0.5047,0.5098,0.5021,0.4898,0.4886,0.5047,0.5049,0.505,0,0.4777,0.4787,0.4771,0.4779,0.4822,0.4812,0.4829,0.4854,0.4858,0.4869,0.4872,0.4881,0.4886,0.4892,0.4931,0.4961,0.4908,0.4959,0.4923,0.4922,0.4909,0.4909,0.4783,0.491,0.491,0.491,0.491,0,0.4685,0.4664,0.4727,0.4717,0.4695,0.4745,0.4721,0.4744,0.4765,0.4759,0.4809,0.4802,0.4854,0.4852,0.4882,0.4863,0.4865,0.4879,0.4887,0.4874,0.4872,0.4876,0.4882,0.4907,0.4908,0.4908,0.4909,0,0.4572,0.4613,0.4599,0.4641,0.4651,0.4632,0.4667,0.4659,0.4687,0.4678,0.4679,0.4723,0.4723,0.4763,0.4771,0.4791,0.4758,0.4776,0.4751,0.4757,0.4719,0.4721,0.459,0.4575,0.4711,0.471,0.4709,0,0.4511,0.4496,0.4537,0.4537,0.4552,0.4551,0.4556,0.4604,0.4607,0.4631,0.4619,0.4623,0.463,0.4627,0.4658,0.4664,0.4682,0.4636,0.4683,0.4671,0.4681,0.4681,0.468,0.4625,0.4624,0.4622,0.4621,0,0.4397,0.4418,0.4424,0.4436,0.4441,0.4452,0.4467,0.4464,0.4516,0.4516,0.4518,0.4523,0.4532,0.4535,0.4547,0.4562,0.46,0.4606,0.4598,0.4585,0.4571,0.4577,0.4723,0.4609,0.461,0.4611,0.4612,0.4612,0.4308,0.4298,0.4324,0.4329,0.4345,0.4358,0.4352,0.4379,0.4382,0.4394,0.4422,0.4419,0.444,0.446,0.4473,0.447,0.4493,0.4481,0.4478,0.4475,0.4467,0.4571,0.4472,0.4472,0.4473,0.4473,0.4473,0,0.4196,0.4217,0.422,0.424,0.4243,0.428,0.4298,0.4297,0.4294,0.4312,0.4318,0.4319,0.4322,0.4354,0.4361,0.4352,0.4369,0.4352,0.4353,0.4356,0.4446,0.4453,0.4338,0.4338,0.4338,0.4338,0.4338,0.4338,0.4139,0.4124,0.4148,0.414,0.416,0.4159,0.4166,0.4177,0.4192,0.4191,0.4195,0.4216,0.4239,0.4248,0.4252,0.4261,0.4261,0.4238,0.4252,0.4336,0.4349,0.4362,0.4368,0.4237,0.4237,0.4162,0.4161,0.4161]}]]